Regional Weather Roundup
Issued by NWS

Home | Current Version | Previous Version | Graphics & Text | Print | Product List | Glossary On
Versions: 1 2 3 4 5 6 7 8 9 10 11 12 13 14 15 16 17 18 19 20 21 22 23 24 25 26 27 28 29 30 31 32 33 34 35 36 37 38 39 40 41 42 43 44 45 46 47 48 49 50
000
ASUS45 KABQ 180210
RWRNM
NEW MEXICO REGIONAL WEATHER ROUNDUP
NATIONAL WEATHER SERVICE ALBUQUERQUE NM
700 PM MST SAT FEB 17 2018

NOTE: "FAIR" MEANS FEW OR NO CLOUDS BELOW 12,000 FEET AGL WITH NO
       SIGNIFICANT WEATHER OR OBSTRUCTIONS TO VISION.

      THIS PRODUCT IS RELEASED AS TWO VERSIONS.  ONE VERSION NEAR
      THE TOP OF THE HOUR CONTAINING PRELIMINARY DATA FROM ALBUQUERQUE
      AND OTHER STATIONS.  A FINAL VERSION WITH ADDITIONAL DATA IS
      ISSUED ABOUT 10 MINUTES AFTER THE HOUR.

NMZ501-503-504-510>518-180300-
NORTHWEST PLATEAU/NORTHCENTRAL MOUNTAINS

CITY           SKY/WX    TMP DP  RH WIND       PRES   REMARKS
FARMINGTON     FAIR      47  13  25 CALM      30.13S
LOS ALAMOS     MOCLDY    45  20  36 W9        30.18S
SANTA FE       FAIR      46  19  34 SW9       30.16S
TAOS           FAIR      39  17  41 S8        30.19R WCI  33
ANGEL FIRE     FAIR      31  15  51 S8        30.19R WCI  23

$$
NMZ402-403-502-505>509-180300-
WESTCENTRAL MOUNTAINS/SOUTHWEST MOUNTAINS

CITY           SKY/WX    TMP DP  RH WIND       PRES   REMARKS
GALLUP         FAIR      44  29  55 CALM      30.18R
GRANTS         FAIR      43  22  44 CALM      30.19S
SILVER CITY    FAIR      49  43  80 CALM      30.19S

$$
NMZ407-409-411-412-180300-
SOUTHERN DESERTS

CITY           SKY/WX    TMP DP  RH WIND       PRES   REMARKS
DEMING         FAIR      55  47  74 E3        30.16S
LAS CRUCES     FAIR      54  46  76 CALM      30.17S
ALAMOGORDO     FAIR      50  39  66 SE3       30.18R
T OR C         FAIR      55  39  54 CALM      30.17R

$$
NMZ519>523-180300-
CENTRAL VALLEYS/CENTRAL HIGHLANDS

CITY           SKY/WX    TMP DP  RH WIND       PRES   REMARKS
ALBUQUERQUE    MOCLDY    51  25  36 S8        30.16S
MORIARTY ARPT  FAIR      42  24  49 CALM      30.19R
CLINES CORNERS FAIR      36  22  56 W13       30.21R WCI  27
BELEN          FAIR      46  31  55 S5        30.17S
SOCORRO        FAIR      51  37  59 S7        30.17S

$$
NMZ524>526-539-540-180300-
SOUTHCENTRAL MOUNTAINS

CITY           SKY/WX    TMP DP  RH WIND       PRES   REMARKS
RUIDOSO        NOT AVBL

$$
NMZ527>531-180300-
NORTHEAST HIGHLANDS/NORTHEAST PLAINS

CITY           SKY/WX    TMP DP  RH WIND       PRES   REMARKS
LAS VEGAS      FAIR      39  21  48 S17       30.15R WCI  30
RATON          FAIR      38  13  35 SW7       30.11R WCI  33
CLAYTON        FAIR      38  11  32 S16       30.11F WCI  29

$$
NMZ532>537-180300-
EASTCENTRAL PLAINS

CITY           SKY/WX    TMP DP  RH WIND       PRES   REMARKS
SANTA ROSA     FAIR      46  26  45 SE8       30.15R
TUCUMCARI      FAIR      46  23  40 S8        30.13R
CANNON AFB     FAIR      41  37  86 SE7       30.19S
CLOVIS AIRPORT NOT AVBL

$$
NMZ028-029-538-180300-
SOUTHEAST PLAINS

CITY           SKY/WX    TMP DP  RH WIND       PRES   REMARKS
ROSWELL        FAIR      52  39  61 SE6       30.13R
ARTESIA        FAIR      54  54 100 SE7       30.15R
CARLSBAD       FAIR      54  44  69 SE3       30.13R
HOBBS          FAIR      50  30  46 E9        30.18R


$$



USA.gov is the U.S. government's official web portal to all federal, state and local government web resources and services.